Theta_e
294 294 294 293 293 293 294 294 295 297 300 304 305 307 308 309 313 316 316 316 316 315 308 305 304 299 298 295 293 291 290 289 288 288 287 287 289 289 289 289 289 290 291
292 293 292 292 292 292 292 293 293 294 296 299 301 302 300 301 306 307 311 312 312 312 309 304 301 298 294 293 292 291 289 290 289 287 285 283 286 287 289 288 288 288 289
290 290 290 290 290 290 290 292 293 293 293 294 296 297 298 298 298 302 303 303 307 308 307 304 301 298 296 294 292 291 290 289 288 289 288 283 283 283 286 287 287 287 286
290 290 289 289 289 289 289 291 292 293 293 293 292 291 291 290 292 294 294 295 298 303 304 304 301 298 296 294 292 292 290 289 287 287 291 288 287 283 282 285 286 286 286
289 289 289 290 290 289 288 288 291 291 292 292 291 291 289 289 289 290 290 291 293 295 298 299 301 299 297 295 293 293 290 289 288 288 286 286 286 286 283 281 282 284 285
289 289 290 290 289 288 287 287 288 289 290 290 289 289 289 289 289 289 289 289 290 291 291 292 293 295 296 294 293 293 292 292 289 288 287 287 286 285 285 282 281 281 283
287 287 287 287 287 286 286 287 286 286 287 287 287 287 287 287 287 287 287 287 288 288 288 288 288 290 292 293 292 289 289 291 291 292 289 289 288 286 286 285 281 281 282
288 287 287 286 286 286 285 285 285 285 285 285 285 285 285 285 285 285 285 286 286 287 288 288 287 287 288 289 290 289 287 287 288 291 290 291 289 287 286 286 282 280 279
286 287 286 286 286 285 284 284 284 283 284 284 284 284 284 283 282 282 283 283 284 286 286 286 286 286 286 286 287 286 286 286 286 287 288 290 291 290 288 286 285 285 281
285 284 285 285 285 285 284 284 284 283 283 283 284 284 284 284 282 281 281 281 282 283 283 284 284 285 285 285 284 284 284 284 285 286 285 286 289 289 290 289 285 284 289
283 285 283 284 284 283 282 282 283 283 282 282 282 283 282 283 282 281 281 281 281 281 282 282 282 283 283 283 283 283 284 283 284 284 284 285 285 287 289 285 286 287 283
282 284 283 283 283 282 282 281 281 282 282 282 281 281 282 282 281 281 280 280 279 280 280 281 281 282 282 282 282 283 284 283 284 284 284 284 286 284 286 286 286 287 285
282 282 281 280 280 280 280 280 280 281 281 281 280 280 280 279 279 279 280 280 280 279 279 279 279 280 281 281 282 282 283 283 284 285 285 285 285 284 285 285 285 287 286
282 280 280 280 280 280 279 280 280 280 280 279 279 278 278 278 278 279 278 279 279 278 278 278 279 279 280 280 281 282 282 282 283 284 285 285 284 285 285 285 285 286 286
281 280 280 280 279 280 281 281 280 280 280 279 279 278 278 279 279 278 279 278 278 278 278 277 277 277 277 278 279 280 280 281 282 283 284 284 285 286 287 285 285 286 285
280 280 280 280 280 280 280 281 280 280 280 278 278 278 278 279 279 278 278 278 278 277 277 277 277 276 277 280 281 281 279 279 280 280 282 283 284 285 288 289 290 288 285
279 278 279 280 280 280 281 280 279 278 276 275 274 275 276 276 276 277 276 275 275 275 275 275 275 275 275 279 280 280 278 277 277 278 280 281 283 283 284 286 289 289 290
279 280 279 279 280 280 279 278 278 276 276 274 273 273 274 273 273 273 272 272 272 272 272 272 272 272 273 277 278 278 276 275 276 276 278 279 280 282 283 283 283 284 286
280 280 279 279 278 277 276 276 275 275 275 274 274 273 271 269 269 268 268 268 268 268 268 269 268 268 268 273 273 273 271 272 272 274 275 276 277 281 284 283 282 282 283
280 279 278 278 276 274 274 274 273 271 271 272 271 270 269 266 266 266 265 265 265 265 266 265 265 265 264 269 270 271 269 268 269 270 272 275 276 279 282 280 281 280 281
279 278 276 274 273 273 272 271 270 268 269 269 268 266 266 264 264 263 264 263 262 263 262 262 263 263 264 264 269 270 269 268 268 269 270 273 276 278 280 282 282 282 284
276 276 274 273 272 271 269 268 267 269 266 265 263 263 261 261 263 261 261 261 260 260 260 260 261 262 264 266 268 270 271 271 268 267 269 271 275 277 279 280 283 286 286
275 273 270 270 270 267 267 265 266 265 264 259 258 258 260 261 261 259 259 259 259 259 259 260 260 261 263 264 268 269 270 270 268 268 269 272 273 275 276 280 282 283 283
271 269 266 264 264 265 266 263 263 263 255 254 258 260 260 260 259 260 260 259 258 258 259 259 259 261 263 265 267 267 265 267 268 268 267 269 271 273 275 274 280 281 282
269 267 265 264 263 264 262 259 261 258 257 258 260 260 260 259 259 260 259 260 261 262 262 264 265 264 264 266 271 272 270 270 271 269 267 267 269 269 270 271 279 280 281
266 264 263 262 261 258 258 257 255 254 254 258 259 259 259 259 259 259 259 264 266 268 269 270 269 268 271 272 273 274 275 275 276 271 267 267 267 267 268 270 273 276 278
Wind_Speed
10 13 13 11 12 14 15 15 15 14 10 7 5 5 4 4 5 4 4 5 4 6 6 4 5 5 7 7 6 4 5 1 3 4 2 2 3 4 4 4 4 5 4
11 11 11 11 13 13 13 14 14 14 11 8 4 4 2 3 3 5 7 6 2 1 4 6 5 5 4 5 6 6 4 4 6 5 2 2 4 3 4 4 4 6 4
11 8 10 9 9 12 10 11 12 12 12 10 7 6 5 4 6 6 6 7 7 5 0 3 4 5 5 7 7 6 7 6 6 6 6 2 6 1 1 5 4 5 4
9 7 7 8 8 8 8 8 11 13 12 12 9 10 6 5 4 4 4 7 8 6 5 4 2 3 3 4 5 5 4 4 6 3 7 2 4 4 2 2 4 5 6
8 8 7 7 7 7 7 7 9 13 12 14 12 9 10 5 4 6 9 9 9 10 10 6 4 2 3 4 5 4 6 4 4 5 1 2 2 2 3 4 4 2 5
7 7 7 7 7 7 7 7 9 11 11 12 13 13 13 11 11 10 9 8 6 6 9 10 7 6 4 4 5 6 6 8 6 4 5 4 4 4 4 3 4 4 4
7 7 7 7 7 7 8 7 9 12 11 12 12 11 10 9 10 8 7 8 7 6 9 7 7 5 6 6 4 5 5 7 8 11 8 8 6 3 3 2 3 4 4
6 6 6 6 6 8 8 8 8 10 8 8 9 9 9 7 6 7 6 6 6 6 7 8 7 7 7 7 6 3 4 5 6 11 8 9 8 5 5 5 5 1 3
6 6 6 6 6 5 5 6 7 6 6 6 6 7 7 8 7 8 5 4 5 7 9 9 9 8 7 7 7 4 6 5 6 7 8 9 8 6 7 4 5 6 7
6 6 5 6 4 4 4 5 6 6 5 6 6 5 6 6 5 4 6 6 5 6 7 8 9 9 8 7 7 5 6 6 5 5 7 8 7 8 7 8 5 5 12
7 6 6 6 6 5 5 5 5 5 5 5 5 6 5 5 5 4 4 5 6 6 7 7 7 8 8 7 7 7 7 7 7 6 7 8 7 9 9 5 7 9 6
9 7 6 5 5 6 5 4 4 3 2 2 4 4 4 6 6 6 7 7 7 6 6 7 7 7 7 7 7 8 9 8 8 8 7 9 7 9 10 8 11 11 7
8 7 7 6 6 6 5 4 4 4 2 3 3 4 4 5 6 7 7 7 7 7 8 7 8 9 8 8 9 9 9 9 9 9 10 11 9 10 9 10 11 10 8
9 7 6 6 5 4 5 6 4 3 2 1 1 2 3 4 5 6 6 6 7 7 8 8 10 11 11 11 11 11 11 11 11 10 10 11 11 12 11 11 13 11 11
8 8 7 6 5 4 3 4 2 0 1 3 4 5 5 7 6 8 8 9 7 10 11 11 11 11 11 10 11 11 11 12 14 14 13 13 14 19 17 10 11 12 11
7 8 8 8 8 8 7 5 3 2 1 2 4 6 7 9 10 11 12 12 13 13 13 14 14 15 12 24 27 23 15 16 16 17 17 14 15 18 25 26 27 20 13
3 7 8 9 8 7 5 4 2 2 2 2 3 5 6 8 9 9 10 13 15 15 16 16 16 17 18 28 30 30 17 17 18 19 18 17 13 15 15 22 27 27 31
6 7 6 5 5 4 2 4 4 3 4 4 5 5 5 5 6 11 13 15 15 16 16 17 17 18 18 31 32 32 20 18 20 19 20 20 20 19 17 16 17 18 19
5 5 3 5 5 5 5 5 3 3 3 5 5 4 5 7 11 13 14 14 14 15 16 17 18 18 20 29 33 30 19 20 22 20 21 21 23 28 30 21 20 19 19
5 6 6 5 7 4 5 4 2 1 4 3 5 7 7 7 11 13 14 14 13 16 14 16 16 19 20 25 30 26 14 18 16 20 22 29 30 36 35 23 20 20 21
5 6 6 6 6 4 3 2 0 2 1 3 5 5 7 10 11 13 12 13 14 16 15 17 15 16 16 17 28 27 16 14 15 15 15 15 31 34 36 36 21 24 20
6 5 5 4 4 4 4 2 3 3 3 3 5 7 7 8 9 11 12 12 13 15 15 15 14 11 13 19 23 28 29 27 18 18 15 17 32 35 37 32 35 34 29
5 3 4 3 2 3 3 2 4 5 5 3 6 7 7 8 8 10 11 10 12 12 13 12 13 13 12 12 27 31 31 30 21 16 23 36 36 39 32 34 38 30 16
5 4 3 3 1 1 1 3 5 5 4 5 7 7 8 9 8 7 9 9 11 11 11 13 14 14 13 12 11 12 14 24 23 26 20 22 28 31 29 22 24 17 14
4 3 3 1 2 1 2 4 4 4 6 6 8 9 7 9 10 8 10 10 12 14 14 13 14 15 15 13 26 25 16 14 17 18 14 13 12 12 12 14 14 14 14
3 2 1 1 2 1 3 4 5 4 4 8 7 8 9 9 9 10 11 20 25 28 30 31 25 15 29 35 34 35 36 35 34 14 12 13 13 12 12 13 14 8 11
Wind_Direction
62 48 35 22 23 22 18 17 24 17 24 18 10 21 32 353 25 22 55 126 162 166 161 175 168 162 173 175 167 136 168 206 160 94 357 325 262 226 211 196 193 196 192
64 48 35 28 25 27 25 23 24 27 28 26 6 44 36 24 26 18 31 28 66 195 165 167 182 169 145 168 174 162 155 185 188 152 117 234 307 270 230 221 203 204 188
87 62 52 36 26 28 16 28 28 33 32 32 37 25 19 19 16 16 17 12 16 5 217 205 175 178 178 190 193 187 172 193 210 226 152 127 227 149 220 229 220 206 209
80 76 57 45 37 29 14 25 36 40 39 34 45 55 56 35 350 4 5 3 359 0 25 340 316 221 194 196 200 201 193 142 199 275 242 212 147 183 247 283 227 209 213
102 93 74 56 38 30 25 8 40 46 41 45 48 47 46 40 9 13 15 12 13 14 350 339 346 283 211 223 214 209 210 189 178 211 222 215 235 143 137 216 250 260 217
95 83 74 59 45 27 30 26 35 40 39 45 47 53 51 39 32 18 17 3 359 5 12 358 345 332 307 243 229 219 220 225 225 216 200 194 186 206 183 164 218 213 243
97 90 77 61 45 33 23 37 38 42 34 39 41 44 49 48 47 34 20 8 1 3 354 346 343 351 330 308 263 244 233 226 229 234 236 235 230 184 203 150 190 202 230
106 102 92 83 65 47 38 29 32 42 30 39 38 40 41 47 47 36 22 13 6 350 343 344 347 354 350 338 315 284 260 238 237 241 238 246 237 206 194 191 155 247 250
113 104 87 78 76 75 74 76 57 45 41 43 41 40 42 44 33 19 19 358 343 353 348 347 357 352 348 343 333 312 299 277 256 247 242 244 249 244 235 209 185 200 239
111 117 120 127 125 113 103 85 71 58 42 42 41 35 31 39 37 23 11 354 328 339 344 346 348 349 347 340 338 321 301 295 278 259 246 252 256 249 247 241 225 223 242
161 165 155 153 154 133 112 109 86 60 40 35 35 29 18 8 9 7 344 333 327 334 339 330 333 332 335 334 332 314 300 295 287 280 261 258 246 257 258 239 238 240 209
179 173 171 151 143 134 126 96 120 131 122 74 54 27 7 358 344 339 331 335 329 323 315 311 312 303 310 317 313 309 305 292 289 278 270 266 263 257 260 253 249 246 227
166 154 139 155 149 144 137 117 121 167 131 85 55 12 349 333 320 318 318 314 308 305 312 313 306 304 295 291 291 289 288 284 277 275 273 272 262 261 260 253 253 244 240
170 165 171 170 169 175 178 182 182 141 125 134 161 255 270 276 288 289 284 285 283 283 288 288 293 297 298 294 286 278 275 272 272 266 260 261 254 258 254 251 251 250 244
174 188 190 194 196 194 227 229 227 350 9 334 332 329 334 328 317 317 315 309 302 306 299 300 296 292 290 289 291 286 283 278 278 270 263 259 252 249 246 252 253 250 244
202 197 189 191 194 203 209 214 204 244 70 330 312 325 334 323 317 315 314 310 307 305 301 297 296 293 289 293 297 297 292 290 286 282 276 264 254 256 253 250 247 240 244
167 195 207 202 196 199 181 176 172 98 70 342 314 329 312 302 302 306 309 308 305 303 298 293 292 290 289 291 295 295 293 292 285 280 278 273 263 253 249 250 247 242 241
229 232 224 197 161 155 130 109 79 51 16 338 310 304 303 307 318 314 307 303 301 299 298 295 295 292 288 294 298 299 295 288 283 281 280 275 269 261 253 250 245 238 233
242 233 203 152 139 107 91 83 54 13 339 305 304 333 349 323 311 302 299 299 298 296 294 291 293 293 292 302 301 302 296 286 282 280 275 271 271 270 263 255 251 247 239
241 166 145 122 116 97 96 111 163 241 267 299 331 318 313 296 296 296 297 295 288 287 290 290 289 289 291 297 299 298 287 284 283 281 277 273 270 270 265 259 252 250 244
198 133 122 123 118 115 99 86 111 265 288 317 302 292 289 291 288 287 290 292 290 289 289 286 287 285 285 289 293 294 289 287 287 284 283 279 277 273 269 264 251 245 250
144 133 129 116 99 83 69 18 297 323 301 284 280 278 271 274 288 287 290 289 290 289 289 289 288 283 282 281 287 290 289 288 287 286 287 290 286 276 273 267 259 253 248
152 123 131 118 83 82 93 309 307 316 308 277 268 266 268 278 282 287 290 296 291 290 292 294 293 290 283 275 277 281 284 283 278 273 273 281 281 276 287 283 263 255 247
164 141 108 92 102 156 50 260 305 314 297 278 294 300 302 298 286 283 291 290 287 288 288 287 284 284 283 281 279 270 261 263 268 269 272 268 270 266 274 287 264 243 238
145 126 128 181 201 155 253 270 297 289 301 300 308 305 299 301 296 290 293 283 281 284 287 290 293 296 296 293 292 299 295 284 272 259 253 256 267 275 281 282 264 228 228
116 98 120 298 284 290 269 272 277 270 286 309 312 307 306 302 299 302 295 290 296 300 301 302 301 296 296 301 300 297 297 296 296 273 264 269 261 261 268 271 278 244 239